Volver al catálogo

STARLINK-11454

ActivoComunicacionesVLEO
NORAD 62059·PAYLOAD·🇺🇸 United States

Lanzado Nov 24, 2024 desde Vandenberg Space Force Base

Loading…

Próximos Pases (próximas 24 horas)

TLE

ActualizadoSource: CelesTrak SupGP

Época: Sep 14, 2026, 22:45 UTC

1 62059C 24217C   26257.94840278  .00050124  00000+0  41262-3 0  2578
2 62059  53.1572 218.4103 0001081  99.0761  21.1766 15.69699823    10

Sigue STARLINK-11454 en tiempo real con AllMySat

Download on the App Store